FENGYUN 1C DEB, 37928

Orbit data source: Space-Track

FENGYUN 1C DEB, 37928 is space debris in SSO originally from a launch on Mon, 10 May 1999 UTC launched from the Taiyaun Space Center, China (TSC). Fengyun 1C debris stems from the Chinese weather satellite Fengyun-1C, which was intentionally destroyed by a Chinese anti-satellite missile in 2007. This event dramatically increased the amount of space debris, with thousands of trackable fragments posing hazards to satellites and human spaceflight. The Fengyun 1C debris cloud has become a focal point in discussions about space sustainability and the need for international regulations to prevent the creation of new debris.

Loading next visibility...
Identifier
37928, 1999-025EPD
Orbit
SSO
Country
Flag of CNCN / PRC
Related business
Manufacturer
Unknown
Mission
Spacecraft
Bus & Motor
Unknown
Mass
Unknown
Launch date (UTC)
1999-05-10 (27 years ago)
Launch vehicle
Unknown
Launch site
Taiyaun Space Center, China (TSC)
Object type
Payload
Rocket body
Debris
Shape & HBR
Unknown shape, 0.1 m
Radar Cross Section
Small (<0.1 m²)

Expand to show TLE details & history
Last TLE update: 2 days ago

TLE from 2 days ago
0 FENGYUN 1C DEB
1 37928U 99025EPD 26164.94570424  .00001168  00000-0  39225-3 0  9998
2 37928  98.8964  51.0651 0070451 212.0952 147.5935 14.37782548838249
Epoch: 2026-06-13T22:41Z
TLE epoch observation values (Epoch: 2026-06-13T22:41:48.846Z)
Latitude
-0.00001°
Longitude
168.35807°
Altitude
811.368 km
Speed
7.425 km/s
True Right ascension
03h 24m 15s
True Declination
0° 00' 00"
Sunlit
Object was in daylight at epoch
Visualization orbit readout
Latitude
Unknown
Longitude
Unknown
Altitude
Unknown
Speed
Unknown
Apparent Right ascension
Unknown
Apparent Declination
Unknown
Sunlit
N/A
Visualization observer readout
Local Sidereal Time
02:28:53
Azimuth
Unknown
Elevation
Unknown
Doppler factor
Unknown
Orbital elements
Apogee altitude
813.288 km
Perigee altitude
712.668 km
Semi-major axis
7,141.115 km
Eccentricity
0.00705
Inclination
98.8964°
RAAN
51.0651°
Arg. of periapsis
212.0952°
True anomaly
148.02296°
Mean anomaly
147.5935°
Eccentric anomaly
147.80855°
Mean motion
3.59662 °/min
Orbital period
100.09 mins
BSTAR
0.00039225
Loading maneuver chart data...
Computing Atmospheric mass density...
Loading historical data...
Loading historical data...
Loading historical data...
Loading historical data...
Loading historical data...
Loading historical data...
Loading historical data...

Documentation

Showing up to 5 results
|